Regional Weather Roundup
Issued by NWS Goodland, KS

Home | Current Version | Previous Version | Text Only | Print | Product List | Glossary Off
Versions: 1 2 3 4 5 6 7 8 9 10 11 12 13 14 15 16 17 18 19 20 21 22 23 24 25 26 27 28 29 30 31 32 33 34 35 36 37 38 39 40 41 42 43 44 45 46 47 48 49 50

000
ASUS43 KGLD 240859
RWRGLD

GOODLAND FORECAST AREA HOURLY WEATHER ROUNDUP
NATIONAL WEATHER SERVICE GOODLAND KS
300 AM MDT SUN MAY 24 2015

...OFFICIAL OBSERVATIONS...

CITY           SKY/WX    TMP DP  RH WIND       PRES   REMARKS
GOODLAND KS    CLOUDY    52  51  97 S3        29.90F
HILL CITY KS   CLOUDY    58  56  93 CALM      29.90F
IMPERIAL NEB   CLOUDY    55  54  96 SE9       29.90F
MCCOOK NEB     CLOUDY    57  56  96 S6        29.91S FOG
AKRON CO       CLOUDY    48  48 100 S6        29.91S FOG
BURLINGTON CO  MOCLDY    51  44  77 SE6       29.90R
LIMON CO       LGT RAIN  43  43 100 SE3       29.93F
$$

...UNOFFICIAL OBSERVATIONS...

CITY           SKY/WX    TMP DP  RH WIND       PRES   REMARKS
GOVE KS          N/A     58  32  37 MISG        N/A
LENORA KS        N/A     56  32  40 MISG        N/A
SHARON SPRINGS   N/A     56  55  97 MISG        N/A
TRENTON NEB      N/A     56  32  40 SE12        N/A
KIT CARSON CO    N/A     50  47  88 MISG        N/A
$$


USA.gov is the U.S. government's official web portal to all federal, state and local government web resources and services.